Wetbulb
55.85 54.38 60.74 67.47 67.43 68.98 68.87 69.19 70.35 70.92 71.26 71.08 70.96 71.02 71.00 70.85 70.97 70.89 70.71 70.60 70.90 70.78 70.29 69.89 69.75 69.53 69.47 69.92 70.22 70.07 69.95 69.87 69.75 69.92 70.84 71.48 71.94 71.90 71.71 71.79 72.33 70.69 72.66
53.11 54.44 63.40 68.06 68.80 69.39 69.51 69.63 69.92 70.47 70.58 70.50 70.54 70.56 70.51 70.55 70.44 70.37 70.42 70.38 70.64 70.69 70.84 70.72 70.40 69.84 69.85 69.76 69.33 69.05 69.04 68.95 68.97 69.55 69.06 70.01 71.02 71.66 71.41 71.04 71.74 70.73 71.24
52.93 56.68 64.54 68.13 68.32 68.72 68.96 69.09 69.25 69.38 69.49 69.61 69.76 69.82 69.79 69.56 69.19 69.22 69.02 68.90 68.91 69.06 69.40 70.30 70.31 70.29 70.23 70.25 69.83 69.54 69.20 69.04 69.64 69.81 69.89 69.26 69.06 71.42 71.27 71.51 71.55 71.17 71.11
53.37 60.18 63.34 66.24 66.57 66.46 66.63 67.33 67.73 67.65 67.35 67.39 67.28 67.29 67.36 67.21 66.93 66.74 66.53 66.41 66.49 66.95 66.68 67.46 68.11 68.67 68.96 68.90 69.25 69.21 69.43 69.16 69.05 67.30 64.58 64.72 66.77 70.64 71.28 71.03 70.77 70.38 70.59
57.06 59.01 61.59 63.88 64.29 64.22 64.18 64.63 64.75 65.02 65.19 65.07 65.04 65.00 64.78 64.72 64.73 64.73 64.58 64.50 64.40 64.85 65.03 65.23 65.45 65.78 66.20 66.67 67.17 67.84 68.20 68.08 68.42 65.59 60.00 63.18 63.64 67.08 69.23 70.32 70.50 70.40 69.95
55.57 56.85 60.02 62.14 62.26 62.41 62.59 62.94 63.15 63.46 63.55 63.60 63.61 63.35 63.01 63.12 62.92 62.67 62.35 62.14 62.26 62.62 63.11 63.29 63.14 63.90 64.40 64.60 64.71 65.54 65.96 65.27 65.46 64.93 62.28 65.19 63.83 67.85 67.61 68.62 69.84 70.60 70.34
52.77 54.78 56.94 60.53 60.81 60.62 60.64 60.84 60.82 60.88 60.80 60.82 60.69 60.81 60.70 60.49 60.32 60.09 59.92 59.84 60.01 60.26 60.54 60.90 60.97 61.06 61.51 62.07 61.70 62.15 62.06 63.44 61.65 62.67 65.17 65.81 66.41 68.91 68.38 67.79 68.00 68.85 70.13
49.14 51.96 53.71 56.85 58.01 57.92 58.08 58.29 58.34 58.13 57.93 57.64 57.57 57.34 57.46 57.46 57.12 57.35 57.43 57.58 57.71 57.95 58.11 58.19 58.26 58.08 58.46 58.99 58.54 58.58 59.80 59.45 54.89 57.00 65.08 65.55 68.03 69.20 69.36 69.32 68.82 68.21 68.66
48.37 48.46 49.21 50.46 52.60 54.93 55.10 55.18 55.23 55.18 54.74 54.53 54.35 53.27 53.25 53.11 53.93 54.35 54.99 55.48 55.77 55.91 56.04 56.05 55.98 55.42 54.79 55.41 55.60 55.23 54.76 55.56 46.57 53.31 62.54 62.62 65.93 66.89 67.49 67.71 68.05 68.95 68.89
44.55 44.31 44.61 45.34 45.37 44.25 45.95 52.42 52.14 51.82 51.64 51.78 51.45 50.57 49.75 49.58 49.96 51.77 51.25 52.83 53.25 53.38 53.72 53.98 53.56 53.09 51.92 52.09 52.69 52.43 51.13 49.47 43.09 46.62 53.90 53.36 60.73 63.75 64.78 64.91 65.39 66.30 67.56
43.39 42.59 42.36 42.35 42.36 43.00 43.76 46.32 47.55 48.47 47.90 47.01 45.67 47.97 43.23 40.16 41.67 43.47 48.57 49.40 50.19 49.89 50.80 51.06 50.84 49.96 48.60 47.55 49.12 49.44 47.45 40.90 40.35 42.75 45.48 54.17 57.45 59.88 60.50 60.72 61.57 63.03 64.92
39.02 40.04 40.26 40.84 41.01 41.22 43.82 40.28 39.57 41.29 38.63 37.81 37.63 37.60 38.14 37.36 41.26 42.52 44.25 46.18 46.74 46.61 46.88 47.81 47.78 46.62 43.27 38.85 39.04 43.07 38.88 37.44 39.49 40.15 42.61 52.27 54.70 56.55 57.53 57.92 58.59 59.71 61.25
38.77 39.44 39.86 39.85 39.57 39.76 39.43 38.30 37.45 36.97 36.37 36.60 36.10 36.47 36.09 36.63 35.85 36.57 36.10 36.51 36.00 41.11 37.23 38.48 37.25 37.89 35.91 37.47 37.80 36.92 37.36 36.99 36.34 38.82 42.29 49.61 51.82 53.90 55.31 56.11 56.79 57.66 58.69
38.06 38.41 39.06 38.86 38.70 37.98 37.50 36.64 36.55 36.66 35.54 34.58 35.10 35.50 33.77 33.14 33.36 33.65 33.74 34.30 34.12 34.64 34.28 34.22 34.60 35.88 36.21 37.09 37.07 36.87 36.21 35.84 37.05 38.40 39.09 46.18 48.80 51.14 52.96 54.36 55.33 56.15 57.39
37.35 37.95 37.72 37.52 37.35 37.91 36.92 35.87 35.59 35.01 34.71 34.44 34.48 34.90 33.83 32.57 31.76 33.20 32.87 33.15 32.77 33.58 33.51 33.13 33.32 34.44 34.86 35.71 36.27 36.28 36.16 35.53 35.54 37.41 37.14 43.64 46.70 49.07 50.88 52.39 53.66 55.01 56.06
37.91 36.69 37.21 37.40 37.07 37.14 35.51 34.92 34.42 34.63 34.51 33.92 33.15 33.84 34.56 32.66 31.28 32.53 32.47 32.73 32.13 32.61 33.40 33.34 32.87 32.87 32.79 33.60 34.42 34.68 34.95 34.87 35.86 35.17 36.54 36.99 45.04 46.94 48.85 51.16 52.89 53.81 55.18
37.29 37.10 36.61 36.86 37.04 35.78 35.25 34.91 34.19 35.40 34.90 33.24 32.91 33.31 33.77 33.55 31.79 31.85 31.60 31.18 31.46 32.48 33.18 32.77 32.64 32.49 31.37 33.02 31.18 33.51 33.98 34.40 34.89 35.05 35.99 36.69 38.31 43.35 47.09 52.63 53.74 53.83 54.61
36.47 35.93 36.67 39.14 36.27 35.32 34.42 33.88 34.28 33.78 32.78 32.47 32.22 32.09 33.14 33.80 32.64 31.29 31.28 30.79 31.46 32.13 32.03 31.18 30.97 31.00 30.52 30.61 30.93 31.02 31.55 33.38 33.88 34.24 35.35 35.20 36.21 38.24 40.88 46.35 48.04 48.88 50.47
35.97 35.30 34.93 35.61 34.86 34.74 34.11 33.85 33.34 32.94 32.17 31.59 31.36 31.14 32.31 32.87 33.05 31.09 30.96 30.89 31.24 30.86 30.16 30.44 29.84 29.35 28.66 29.79 31.37 31.50 31.27 31.41 31.72 35.22 32.35 33.93 34.42 35.81 36.52 42.27 43.97 44.37 46.42
34.25 33.97 34.29 34.60 34.10 34.19 33.91 33.38 32.64 32.19 31.51 31.36 30.58 30.93 31.73 31.74 31.79 30.59 30.46 30.26 30.66 29.70 29.14 29.11 28.34 29.18 28.27 28.60 30.88 30.80 30.38 30.67 30.95 30.71 30.38 34.15 34.04 34.84 35.16 35.58 35.10 36.63 43.13
33.45 33.15 33.01 32.94 33.05 32.80 31.50 30.78 30.20 29.54 30.14 30.14 30.66 31.89 31.33 31.33 31.74 29.77 29.47 29.37 29.31 28.51 27.98 29.18 28.46 27.75 27.17 29.05 26.56 27.98 28.13 30.70 29.72 30.34 32.09 30.64 32.00 33.74 33.65 34.52 34.55 35.07 36.03
32.82 32.75 31.98 32.83 32.71 32.46 31.18 30.22 30.23 29.57 29.67 30.23 31.01 30.96 31.52 30.98 31.26 30.83 28.62 28.45 28.28 27.74 27.65 27.27 27.08 26.51 26.61 27.86 24.87 24.74 23.08 26.17 28.87 30.47 30.56 30.76 31.19 31.40 32.98 33.82 33.37 34.30 34.11
31.45 31.22 32.22 31.88 31.54 31.41 31.30 31.18 30.55 30.58 30.09 28.37 28.51 28.78 30.08 30.92 31.18 30.52 29.18 28.28 27.70 27.75 26.65 26.41 26.45 25.97 24.58 25.93 26.66 24.40 22.10 21.18 24.09 28.05 28.82 29.44 29.11 30.57 31.04 31.91 33.13 33.63 33.86
30.50 30.72 31.36 31.39 30.89 31.04 30.69 29.25 28.05 27.05 26.06 26.51 27.20 27.70 28.43 29.80 29.61 30.52 29.99 28.48 27.48 27.42 26.30 26.23 28.48 25.50 24.72 24.02 25.57 28.57 25.56 24.86 21.63 20.31 26.05 28.03 29.29 29.54 29.60 30.53 31.25 32.05 32.59
30.50 29.46 29.89 30.07 29.97 29.34 29.00 28.28 26.38 25.55 25.76 26.35 26.30 26.00 26.58 27.38 28.60 29.29 29.07 27.37 26.71 26.93 25.97 25.69 25.23 24.69 24.59 23.22 23.72 24.13 23.82 24.85 24.90 22.20 19.58 22.15 26.69 28.19 29.12 29.48 30.16 30.77 31.87
29.87 29.21 29.12 28.85 28.55 28.52 27.98 27.27 25.87 24.75 24.22 24.04 23.62 23.28 24.49 25.41 26.50 27.32 28.43 26.67 26.29 25.78 25.36 25.37 25.10 24.23 24.04 23.88 23.64 24.19 23.65 22.27 22.19 21.77 20.50 21.51 21.84 24.89 27.44 28.50 28.73 29.54 30.55
MSLP
1021.59 1021.15 1020.58 1019.57 1019.00 1018.72 1018.66 1018.49 1018.17 1017.81 1017.56 1017.92 1018.09 1018.05 1018.01 1018.02 1017.94 1017.93 1017.94 1017.96 1017.77 1017.55 1017.59 1017.56 1017.52 1017.50 1017.46 1017.36 1017.19 1017.06 1016.94 1016.89 1016.83 1016.69 1016.61 1016.34 1016.24 1016.25 1016.26 1016.19 1016.25 1016.22 1016.18
1022.23 1021.30 1020.01 1019.18 1019.10 1018.78 1018.80 1018.45 1018.21 1017.93 1018.15 1018.37 1018.41 1018.41 1018.33 1018.31 1018.26 1018.27 1018.27 1018.30 1018.15 1018.02 1017.98 1017.88 1017.77 1017.73 1017.70 1017.67 1017.54 1017.40 1017.16 1017.08 1017.01 1016.91 1016.85 1016.77 1016.57 1016.47 1016.51 1016.59 1016.59 1016.52 1016.44
1022.22 1021.45 1019.76 1019.05 1018.92 1018.86 1018.93 1018.84 1018.71 1018.60 1018.61 1018.67 1018.60 1018.74 1018.83 1018.95 1018.97 1018.87 1018.95 1018.93 1018.82 1018.71 1018.58 1018.44 1018.28 1018.17 1018.09 1017.95 1017.87 1017.71 1017.46 1017.23 1017.05 1016.80 1016.80 1016.78 1016.77 1016.68 1016.74 1016.78 1016.77 1016.72 1016.74
1021.98 1020.99 1020.45 1020.12 1019.68 1019.79 1019.56 1019.52 1019.56 1019.54 1019.59 1019.38 1019.39 1019.52 1019.63 1019.74 1019.75 1019.68 1019.66 1019.59 1019.59 1019.44 1019.42 1019.29 1019.03 1018.81 1018.66 1018.41 1018.33 1018.12 1017.87 1017.59 1017.46 1017.23 1017.08 1017.11 1017.09 1017.00 1016.96 1016.89 1016.91 1016.95 1016.94
1021.58 1021.23 1020.84 1020.65 1020.50 1020.60 1020.30 1020.25 1020.15 1020.21 1020.08 1020.04 1020.22 1020.34 1020.44 1020.47 1020.48 1020.49 1020.40 1020.24 1020.26 1020.01 1019.96 1019.74 1019.55 1019.37 1019.20 1018.97 1018.80 1018.57 1018.30 1018.03 1017.71 1017.56 1017.53 1017.41 1017.41 1017.29 1017.24 1017.21 1017.15 1017.07 1017.10
1021.72 1021.13 1021.09 1020.89 1021.12 1021.04 1020.84 1020.80 1020.69 1020.70 1020.66 1020.80 1020.87 1020.94 1021.07 1021.04 1021.16 1021.08 1020.88 1020.64 1020.57 1020.34 1020.40 1020.21 1020.07 1019.84 1019.63 1019.34 1019.10 1018.85 1018.67 1018.44 1018.04 1017.71 1017.71 1017.70 1017.63 1017.43 1017.39 1017.40 1017.36 1017.16 1017.13
1021.83 1022.01 1021.96 1021.63 1021.22 1021.28 1021.38 1021.24 1021.17 1021.05 1021.22 1021.34 1021.36 1021.53 1021.53 1021.54 1021.49 1021.44 1021.24 1020.99 1020.97 1020.83 1020.82 1020.73 1020.43 1020.23 1020.01 1019.79 1019.55 1019.22 1019.00 1018.78 1018.59 1018.18 1018.08 1017.89 1017.75 1017.56 1017.53 1017.49 1017.49 1017.34 1017.18
1021.82 1021.84 1021.72 1021.79 1021.62 1021.98 1021.89 1021.64 1021.69 1021.74 1021.78 1021.90 1021.92 1021.97 1021.84 1021.89 1021.89 1021.77 1021.60 1021.44 1021.45 1021.29 1021.20 1021.12 1020.90 1020.68 1020.47 1020.17 1020.00 1019.70 1019.34 1019.17 1019.07 1018.83 1018.55 1018.35 1018.06 1017.80 1017.71 1017.64 1017.51 1017.42 1017.26
1021.73 1021.98 1022.21 1022.14 1022.14 1022.32 1022.13 1022.18 1022.18 1022.23 1022.36 1022.25 1022.26 1022.42 1022.18 1022.38 1022.22 1022.22 1021.98 1021.86 1021.84 1021.52 1021.44 1021.48 1021.30 1021.27 1021.03 1020.87 1020.46 1020.22 1019.84 1019.67 1019.59 1019.41 1019.07 1018.72 1018.43 1018.18 1018.06 1017.95 1017.72 1017.49 1017.28
1022.14 1022.31 1022.35 1022.37 1022.42 1022.71 1022.76 1022.57 1022.53 1022.57 1022.65 1022.49 1022.61 1022.50 1022.83 1022.76 1022.68 1022.51 1022.53 1022.25 1022.23 1022.16 1021.87 1021.83 1021.59 1021.66 1021.33 1021.19 1020.99 1020.62 1020.49 1020.17 1020.09 1019.93 1019.61 1019.42 1018.92 1018.53 1018.30 1018.27 1018.10 1017.84 1017.51
1022.53 1022.54 1022.63 1022.63 1022.86 1023.06 1022.78 1022.84 1023.00 1023.02 1023.12 1023.21 1023.31 1023.21 1023.28 1023.17 1023.03 1023.14 1023.10 1022.98 1022.90 1022.89 1022.65 1022.32 1022.39 1022.19 1022.25 1021.81 1021.46 1021.06 1020.94 1020.93 1020.66 1020.34 1020.02 1019.61 1019.18 1018.83 1018.61 1018.44 1018.24 1018.01 1017.73
1022.84 1022.77 1022.80 1022.72 1022.86 1022.83 1022.99 1023.35 1023.41 1023.47 1023.83 1023.83 1023.76 1023.68 1023.70 1023.61 1023.55 1023.76 1023.72 1023.59 1023.28 1023.28 1023.14 1022.99 1022.89 1022.66 1022.87 1022.66 1022.11 1021.76 1021.53 1021.39 1021.04 1020.86 1020.35 1019.84 1019.51 1019.07 1018.71 1018.44 1018.23 1018.02 1017.78
1022.86 1023.23 1023.27 1023.28 1023.09 1023.17 1023.57 1023.66 1023.74 1023.79 1024.19 1024.11 1024.04 1024.11 1023.97 1024.07 1024.11 1024.14 1024.35 1024.27 1023.93 1023.89 1024.10 1023.82 1023.72 1023.53 1023.42 1022.98 1022.47 1022.16 1022.00 1021.82 1021.60 1021.13 1020.70 1020.31 1019.86 1019.29 1018.86 1018.55 1018.23 1017.91 1017.68
1022.93 1023.14 1023.11 1023.19 1023.16 1023.38 1023.59 1023.85 1023.71 1024.13 1024.53 1024.42 1024.34 1024.44 1024.58 1024.75 1024.78 1024.80 1024.79 1024.72 1024.48 1024.29 1024.63 1024.54 1024.31 1023.94 1023.61 1023.19 1022.83 1022.54 1022.32 1022.09 1021.82 1021.41 1021.05 1020.54 1020.03 1019.55 1019.04 1018.64 1018.20 1017.79 1017.43
1022.63 1022.91 1023.02 1023.05 1023.21 1023.29 1023.73 1024.09 1024.18 1024.51 1024.64 1024.30 1024.44 1024.53 1024.68 1025.16 1025.51 1025.36 1025.23 1024.96 1024.80 1025.09 1025.27 1024.94 1024.52 1024.14 1023.86 1023.45 1023.02 1022.79 1022.46 1022.15 1021.86 1021.54 1021.08 1020.65 1020.20 1019.69 1019.24 1018.76 1018.24 1017.78 1017.43
1022.36 1022.66 1022.94 1023.15 1023.19 1023.36 1023.89 1024.11 1024.21 1024.39 1024.58 1024.82 1025.08 1025.31 1025.35 1025.55 1025.69 1025.46 1025.43 1025.59 1025.75 1025.75 1025.24 1024.79 1024.64 1024.54 1024.38 1023.97 1023.58 1023.22 1022.85 1022.42 1022.03 1021.72 1021.23 1020.78 1020.26 1019.78 1019.34 1018.68 1018.14 1017.71 1017.35
1022.11 1022.47 1022.84 1022.83 1023.15 1023.47 1023.89 1024.20 1024.32 1024.49 1024.93 1025.35 1025.53 1025.62 1025.66 1025.73 1025.67 1025.77 1026.05 1026.11 1025.83 1025.35 1025.04 1025.02 1025.06 1024.90 1024.65 1024.28 1024.08 1023.49 1022.98 1022.46 1022.05 1021.62 1021.25 1020.86 1020.37 1019.97 1019.50 1018.66 1018.35 1018.18 1017.91
1021.92 1022.36 1022.73 1022.56 1023.21 1023.65 1024.00 1024.25 1024.56 1024.96 1025.29 1025.62 1025.84 1025.87 1025.89 1025.87 1025.91 1026.06 1026.06 1025.88 1025.67 1025.57 1025.52 1025.47 1025.30 1025.07 1024.81 1024.54 1024.06 1023.61 1023.07 1022.32 1021.91 1021.53 1021.19 1021.01 1020.68 1020.22 1019.86 1019.33 1018.96 1018.66 1018.40
1021.63 1022.26 1022.60 1022.76 1023.23 1023.67 1024.04 1024.41 1024.79 1025.06 1025.43 1025.68 1025.77 1026.01 1026.11 1026.18 1026.15 1026.14 1026.13 1026.14 1026.01 1025.96 1025.82 1025.66 1025.43 1025.35 1025.16 1024.80 1024.11 1023.49 1022.95 1022.41 1022.09 1021.54 1021.55 1021.20 1020.87 1020.49 1020.13 1019.73 1019.54 1019.21 1018.78
1021.42 1022.05 1022.41 1022.68 1023.15 1023.60 1024.02 1024.44 1024.86 1025.27 1025.49 1025.58 1025.92 1026.14 1026.22 1026.26 1026.19 1026.34 1026.44 1026.37 1026.16 1026.09 1026.01 1025.86 1025.74 1025.54 1025.39 1025.02 1024.17 1023.47 1022.73 1022.03 1021.78 1021.72 1021.66 1021.30 1021.11 1020.85 1020.52 1020.28 1020.00 1019.64 1019.05
1021.25 1021.84 1022.28 1022.68 1023.09 1023.45 1023.97 1024.54 1024.98 1025.36 1025.66 1025.97 1026.13 1026.19 1026.20 1026.20 1026.24 1026.43 1026.48 1026.37 1026.31 1026.35 1026.35 1026.06 1025.91 1025.63 1025.41 1025.17 1024.43 1023.23 1022.22 1021.47 1021.40 1021.57 1021.46 1021.64 1021.41 1021.10 1020.87 1020.56 1020.22 1019.77 1019.32
1020.84 1021.56 1022.17 1022.58 1023.03 1023.44 1023.81 1024.31 1024.66 1025.22 1025.76 1025.97 1026.16 1026.23 1026.18 1026.23 1026.26 1026.26 1026.41 1026.38 1026.39 1026.48 1026.44 1026.35 1026.12 1025.97 1025.66 1025.58 1025.60 1024.69 1023.56 1022.27 1021.93 1021.90 1021.94 1021.82 1021.57 1021.39 1020.93 1020.59 1020.22 1019.74 1019.49
1020.45 1021.25 1021.97 1022.52 1022.97 1023.34 1023.68 1024.17 1024.73 1025.27 1025.80 1026.18 1026.30 1026.33 1026.21 1026.18 1026.26 1026.24 1026.20 1026.27 1026.39 1026.48 1026.50 1026.35 1026.12 1026.12 1026.12 1025.80 1025.86 1026.17 1025.66 1024.88 1023.89 1022.08 1022.19 1022.02 1021.88 1021.57 1021.04 1020.72 1020.38 1019.87 1019.47
1019.97 1020.99 1021.74 1022.45 1022.97 1023.44 1023.71 1024.22 1024.71 1025.25 1025.81 1026.13 1026.23 1026.35 1026.31 1026.24 1026.20 1026.05 1026.05 1026.27 1026.46 1026.51 1026.52 1026.24 1025.92 1026.14 1026.29 1026.28 1025.99 1025.97 1026.38 1026.31 1025.39 1023.16 1022.60 1022.29 1022.40 1021.92 1021.25 1020.71 1020.32 1019.90 1019.40
1019.54 1020.66 1021.50 1022.29 1022.95 1023.49 1023.88 1024.22 1024.71 1025.41 1025.70 1026.01 1026.22 1026.37 1026.48 1026.39 1026.18 1026.01 1026.13 1026.43 1026.53 1026.54 1026.47 1026.35 1026.23 1026.20 1026.29 1026.38 1026.42 1026.32 1026.23 1025.91 1025.60 1024.90 1022.33 1022.12 1022.22 1021.69 1021.32 1021.05 1020.62 1019.74 1018.99
1019.36 1020.58 1021.49 1022.25 1023.03 1023.51 1023.95 1024.34 1024.73 1025.28 1025.76 1026.07 1026.31 1026.53 1026.56 1026.53 1026.37 1026.28 1026.32 1026.50 1026.55 1026.50 1026.47 1026.36 1026.26 1026.31 1026.28 1026.23 1026.26 1026.24 1026.21 1026.00 1025.45 1025.08 1023.71 1022.36 1021.38 1021.00 1020.90 1020.52 1020.09 1019.66 1019.05
Wind_Speed
7 15 22 20 4 9 9 9 11 14 18 16 16 17 17 18 19 19 19 18 17 17 16 16 17 16 16 16 16 16 15 14 13 12 10 10 12 12 13 11 9 7 12
10 16 26 7 12 15 16 16 16 20 20 19 20 20 21 21 22 22 22 22 22 22 20 17 16 16 16 16 17 17 17 17 16 12 6 8 11 13 13 11 8 7 10
5 12 11 24 21 20 19 20 21 22 23 23 23 24 24 23 22 23 22 22 22 22 21 21 20 19 17 15 16 16 17 18 18 17 8 4 7 13 13 10 7 7 8
5 9 9 19 21 20 20 21 22 22 21 22 22 22 22 22 21 20 20 20 20 20 19 19 20 21 20 20 19 18 17 18 18 14 5 5 7 14 13 12 10 8 7
6 6 10 17 19 18 19 19 20 20 21 22 21 21 20 20 20 20 20 20 20 20 19 19 19 18 18 18 18 18 18 19 15 9 6 6 5 10 12 12 9 7 5
6 6 12 16 17 17 19 19 19 19 20 20 20 20 19 20 19 19 19 20 19 19 19 18 18 17 18 18 19 19 19 20 15 9 5 8 6 10 10 11 12 12 7
6 7 7 15 17 17 17 18 18 19 18 18 18 18 18 18 19 19 19 19 19 19 19 19 19 19 18 19 21 21 21 19 9 9 5 5 5 10 10 10 10 11 12
6 4 8 13 16 15 15 17 17 17 17 16 17 17 18 19 19 19 20 19 19 19 19 19 19 19 19 19 21 22 22 21 12 9 7 7 15 15 15 15 12 11 11
5 6 4 6 11 14 16 16 16 16 17 16 17 17 18 17 19 19 19 20 19 20 19 19 20 19 19 19 20 22 22 20 10 8 9 7 16 16 16 18 17 17 14
6 6 5 6 6 6 4 14 16 17 16 17 16 17 17 16 19 19 18 19 20 20 20 19 20 21 20 20 20 20 19 18 9 8 6 9 19 18 17 17 17 17 18
5 6 5 5 6 6 6 9 13 17 17 16 14 16 12 6 7 11 17 18 18 19 19 19 19 20 20 19 21 21 17 6 7 7 5 19 19 17 17 17 17 17 18
5 4 4 5 5 6 6 6 6 9 6 7 7 7 5 7 8 10 13 19 19 20 20 21 20 20 15 6 6 13 6 8 7 6 5 20 19 18 18 18 18 18 19
6 4 5 4 4 7 5 4 3 4 4 5 8 7 7 6 5 5 4 5 5 13 6 8 7 6 7 6 7 6 7 6 4 5 10 21 20 20 20 19 19 18 18
7 7 6 5 6 6 4 4 4 5 4 4 6 7 5 4 5 5 4 5 5 5 6 5 4 6 8 9 8 8 7 6 5 5 7 19 20 20 21 21 21 20 19
8 7 7 6 6 6 6 4 4 4 4 5 6 7 6 5 5 4 4 5 5 5 4 4 4 6 7 9 8 9 9 7 8 6 5 17 19 19 19 20 20 20 20
9 7 6 7 7 7 5 6 4 4 5 5 5 5 6 4 4 4 5 5 4 3 3 4 5 5 5 6 8 8 9 7 9 8 7 8 19 20 20 20 19 18 17
9 8 7 7 7 7 7 6 5 4 5 4 4 6 6 5 5 5 3 3 3 4 6 5 5 4 4 5 5 6 5 8 8 9 7 5 9 16 18 17 19 16 17
11 10 8 8 8 7 7 5 4 5 4 4 4 4 6 5 6 4 3 4 5 5 4 4 4 5 5 5 6 5 6 7 9 8 5 5 5 5 9 17 17 16 17
12 10 8 8 8 7 7 5 5 6 5 4 4 4 5 5 5 5 4 4 5 4 4 4 4 4 4 6 8 6 6 6 5 7 6 7 7 6 5 12 17 18 19
10 8 7 7 8 8 5 5 4 4 4 4 4 4 5 4 5 5 4 4 4 4 4 4 4 3 2 5 8 6 7 5 3 3 4 8 6 8 8 7 5 8 21
10 10 8 8 7 5 3 4 3 4 3 2 3 5 5 4 5 5 3 4 4 4 4 6 3 4 3 8 4 8 3 6 3 5 10 6 5 6 6 7 7 6 7
14 11 9 8 7 5 4 3 3 4 2 3 3 4 4 4 3 3 3 4 5 3 5 4 4 3 2 6 4 3 7 6 5 16 9 6 8 5 10 10 9 7 8
15 13 11 8 7 6 6 4 3 3 3 3 2 2 1 3 3 3 3 3 4 3 3 3 3 5 4 3 5 2 5 3 13 5 13 7 7 10 8 6 11 11 8
14 11 10 9 8 7 7 4 5 4 4 2 2 1 2 4 3 4 4 4 4 3 4 3 5 3 3 5 3 2 2 5 5 9 2 8 11 8 14 10 8 10 12
14 12 11 10 8 7 6 6 6 5 4 2 3 4 3 3 5 5 5 4 4 3 4 5 5 5 2 2 1 3 4 6 8 8 14 4 10 8 7 8 9 10 9
13 12 12 11 7 7 7 7 8 8 6 4 2 2 1 2 3 5 4 4 4 4 4 4 4 5 4 4 3 4 5 6 8 8 14 14 15 10 8 8 7 8 9
Wind_Direction
322 313 318 310 67 61 81 88 81 77 75 80 81 79 76 73 68 64 57 54 55 61 61 58 56 55 49 41 39 36 34 36 34 31 33 62 66 60 53 60 61 62 70
292 305 315 145 101 75 64 61 69 73 72 75 75 71 68 64 58 54 51 46 46 48 47 48 54 52 46 43 38 27 21 18 13 5 28 52 60 60 55 49 51 64 68
329 301 352 61 68 66 62 64 65 66 64 63 64 61 60 60 58 56 53 48 45 42 38 38 44 43 41 45 41 30 18 13 7 3 88 67 59 53 45 46 49 56 58
317 360 31 53 63 62 63 62 63 66 64 62 60 60 58 55 54 55 53 52 46 46 44 36 32 34 31 33 28 23 14 9 7 10 53 47 52 43 39 36 42 36 30
69 15 56 65 64 67 71 70 70 67 68 69 68 66 65 63 58 56 55 54 49 46 44 41 37 35 34 33 28 19 12 8 357 0 25 69 50 36 30 25 24 21 6
92 36 58 69 76 71 72 70 71 71 69 69 69 68 66 63 61 58 55 51 48 46 40 39 37 33 30 29 24 19 12 4 356 350 52 46 41 35 29 19 10 8 342
106 93 79 75 72 70 73 73 72 71 71 70 69 69 67 63 61 57 53 52 46 43 37 32 31 27 28 26 20 17 7 2 3 359 54 52 36 32 22 12 4 360 359
108 121 86 80 78 77 75 75 75 73 74 73 73 65 67 61 58 54 53 48 47 45 41 37 36 30 29 25 21 19 21 18 15 2 31 23 20 15 13 10 360 352 348
72 94 125 102 89 80 76 77 75 76 73 71 70 66 61 61 56 54 49 46 43 40 38 35 34 31 29 24 21 17 17 14 15 7 12 15 5 7 7 3 354 354 348
70 54 62 105 112 92 70 82 77 72 68 66 66 65 56 54 54 49 44 45 39 34 35 30 30 23 23 21 19 20 16 10 359 7 351 5 3 359 359 355 349 344 341
73 67 57 77 99 137 93 79 77 73 63 54 48 58 47 36 45 39 43 42 40 34 31 30 26 24 16 13 12 13 13 5 355 355 349 352 352 351 348 344 340 337 333
125 87 61 58 78 78 93 87 76 77 59 50 40 37 43 39 40 52 42 39 35 32 25 23 19 19 11 357 1 6 0 354 357 344 348 348 346 341 337 336 334 331 327
148 137 135 114 100 95 96 84 78 70 57 49 44 42 43 41 29 35 32 33 22 25 16 17 8 12 360 355 3 358 356 351 343 339 342 343 338 335 333 329 326 325 322
155 155 138 127 100 100 94 81 82 84 63 59 51 46 50 36 29 29 32 30 23 18 7 4 1 3 3 2 1 356 349 343 340 334 334 334 333 332 329 327 323 320 317
154 154 145 128 116 105 97 98 93 95 96 74 57 46 46 38 30 25 34 33 20 8 357 356 4 8 4 360 358 351 344 338 337 334 321 325 331 330 329 327 324 322 324
152 150 152 139 132 119 116 108 100 90 88 77 70 68 58 55 35 38 37 29 11 345 351 12 14 7 354 350 343 337 328 323 324 318 316 318 326 328 330 332 328 325 328
160 154 162 143 131 119 123 121 107 101 91 91 79 70 69 58 46 49 50 26 1 2 19 11 1 358 351 342 321 314 307 310 311 311 311 321 323 327 344 355 10 359 355
156 160 173 149 139 132 128 114 107 111 101 94 85 67 64 56 47 44 44 27 13 14 19 355 2 4 352 342 326 306 307 315 314 312 326 318 321 339 343 354 7 1 360
160 165 167 143 140 137 128 126 124 122 112 111 89 76 62 55 40 47 37 23 22 20 13 10 360 8 346 343 327 318 302 300 293 317 338 336 328 345 350 10 7 359 351
156 155 151 145 148 149 142 130 111 111 106 101 100 96 79 68 51 57 40 30 26 24 12 5 355 342 323 337 325 317 299 283 281 54 356 355 345 353 357 3 353 341 338
158 157 158 151 166 148 139 135 121 128 115 99 111 109 86 76 59 63 43 30 25 28 8 358 331 334 3 350 333 328 296 317 38 4 346 333 326 351 337 344 329 320 318
164 163 157 160 160 152 128 131 129 135 147 134 117 106 95 104 86 83 64 36 28 17 3 356 358 344 332 11 357 321 347 340 2 337 317 320 337 330 334 321 324 336 343
165 164 163 154 144 139 132 119 95 89 78 80 73 75 31 100 103 101 71 55 21 18 356 345 0 28 352 355 33 17 335 313 328 312 326 311 334 327 308 321 321 321 326
163 156 146 141 136 144 144 132 144 143 135 166 141 106 35 61 38 45 52 50 25 360 353 340 13 18 30 336 345 10 248 286 307 313 348 326 291 316 315 311 315 313 309
155 151 142 137 134 132 136 127 121 115 115 123 94 71 51 20 30 33 46 31 4 355 349 353 346 347 348 317 312 313 304 295 284 285 301 298 294 292 296 291 287 296 302
146 142 141 136 139 135 126 125 125 128 130 113 96 83 34 18 20 14 9 359 350 346 343 329 321 322 308 293 280 277 276 281 286 285 290 300 301 301 292 286 280 283 291